Regional Weather Roundup
Issued by NWS Albany, NY

Home | Current Version | Previous Version | Text Only | Print | Product List | Glossary On
Versions: 1 2 3 4 5 6 7 8 9 10 11 12 13 14 15 16 17 18 19 20 21 22 23 24 25 26 27 28
000
ASUS41 KALY 110610
RWRALY

NEW YORK STATE HOURLY WEATHER ROUNDUP
NATIONAL WEATHER SERVICE ALBANY NY
100 AM EST MON DEC 11 2017

NOTE: "FAIR" INDICATES FEW OR NO CLOUDS BELOW 12,000 FEET WITH NO
SIGNIFICANT WEATHER AND/OR NO OBSTRUCTIONS TO VISIBILITY.

NYZ032-033-038>043-046>054-057>066-NYZ062>081-082-084-110700-
EAST


CITY           SKY/WX    TMP DP  RH WIND       PRES   REMARKS
ALBANY         CLOUDY    32  22  66 S9        29.92S WCI  24
GLENS FALLS    CLOUDY    30  21  69 SW9       29.88F WCI  22
POUGHKEEPSIE   CLOUDY    33  19  56 W9        29.97S WCI  25
NEWBURGH       CLOUDY    32  21  64 W9        29.97S WCI  24
MONTGOMERY     CLOUDY    32  20  61 SW6       29.95F WCI  26
WHITE PLAINS   CLOUDY    33  20  58 W6        29.97F WCI  28
ISLIP          CLOUDY    35  24  64 W7        30.00F WCI  29
NEW YORK CITY  CLOUDY    37  21  52 SW13G18   30.00F WCI  29
CENTRAL PARK   CLOUDY    36  21  54 VRB5G18   30.02F WCI  32
$$

NYZ005>009-017-018-044>046-055-056-110700-
CENTRAL


CITY           SKY/WX    TMP DP  RH WIND       PRES   REMARKS
FULTON         CLOUDY    30  22  72 SW13      29.87F WCI  20
SYRACUSE       FLURRIES  29  23  78 SW12      29.88F WCI  19
ROME           FLURRIES  28  26  92 CALM      29.89F
ELMIRA         CLOUDY    31  19  61 SW10      29.89F WCI  22
BINGHAMTON     CLOUDY    26  16  65 SW8       29.84F WCI  18
$$

NYZ026>034-041>043-087-110700-
NORTH


CITY           SKY/WX    TMP DP  RH WIND       PRES   REMARKS
WATERTOWN      CLOUDY    29  23  78 NW9       29.84S WCI  20
FORT DRUM      NOT AVBL
OGDENSBURG     CLOUDY    26  20  80 N13       29.85R WCI  15
MASSENA        FLURRIES  25  21  85 NW12      29.86R WCI  14
SARANAC LAKE   LGT SNOW  23  22  96 SW7       29.73F FOG     WCI  15
PLATTSBURGH    LGT SNOW  29  24  82 S5        29.83S WCI  24
$$

NYZ001>004-010>016-019>021-085-110700-
WEST


CITY           SKY/WX    TMP DP  RH WIND       PRES   REMARKS
NIAGARA FALLS  FLURRIES  30  20  66 W7        29.87S WCI  23
BUFFALO        FLURRIES  28  21  75 VRB7      29.87S WCI  21
DUNKIRK        LGT SNOW  27  26  96 SW12      29.90S FOG     WCI  17
JAMESTOWN      FLURRIES  23  20  88 SW12      29.85S WCI  12
WELLSVILLE     FLURRIES  25  17  72 SW9       29.83F WCI  15
ROCHESTER      LGT SNOW  28  25  88 SW10      29.89S FOG     WCI  19
PENN YAN       CLOUDY    30  17  58 SW7       29.87F WCI  23
$$

             KEY
       WCI = WIND CHILL INDEX
       VSB = VISIBILITY
       HX  = HEAT INDEX
$$




USA.gov is the U.S. government's official web portal to all federal, state and local government web resources and services.